Year,Month,Day,Hour,Minute,Value (Times are PST for temperature in C)
2014,08,20,07,53,13.80
2014,08,20,07,54,13.70
2014,08,20,07,55,13.70
2014,08,20,07,56,13.70
2014,08,20,07,57,13.70
2014,08,20,07,58,13.70
2014,08,20,07,59,13.70
2014,08,20,08,00,13.70
2014,08,20,08,01,13.80
2014,08,20,08,02,13.80
2014,08,20,08,03,13.80
2014,08,20,08,04,13.80
2014,08,20,08,05,13.80
2014,08,20,08,06,13.80
2014,08,20,08,07,13.80
2014,08,20,08,08,13.80
2014,08,20,08,09,13.80
2014,08,20,08,10,13.90
2014,08,20,08,11,13.90
2014,08,20,08,12,13.90
2014,08,20,08,13,14.00
2014,08,20,08,14,14.00
2014,08,20,08,15,14.10
2014,08,20,08,16,14.10
2014,08,20,08,17,14.10
2014,08,20,08,18,14.10
2014,08,20,08,19,14.10
2014,08,20,08,20,14.10
2014,08,20,08,21,14.20
2014,08,20,08,22,14.20
2014,08,20,08,23,14.30
2014,08,20,08,24,14.30
2014,08,20,08,25,14.40
2014,08,20,08,26,14.40
2014,08,20,08,27,14.40
2014,08,20,08,28,14.40
2014,08,20,08,29,14.30
2014,08,20,08,30,14.30
2014,08,20,08,31,14.30
2014,08,20,08,32,14.30
2014,08,20,08,33,14.30
2014,08,20,08,34,14.30
2014,08,20,08,35,14.20
2014,08,20,08,36,14.10
2014,08,20,08,37,14.00
2014,08,20,08,38,14.00
2014,08,20,08,39,13.90
2014,08,20,08,40,13.80
2014,08,20,08,41,13.80
2014,08,20,08,42,13.80
2014,08,20,08,43,13.80
2014,08,20,08,44,13.80
2014,08,20,08,45,13.80
2014,08,20,08,46,13.80
2014,08,20,08,47,13.80
2014,08,20,08,48,13.80
2014,08,20,08,49,13.80
2014,08,20,08,50,13.80
2014,08,20,08,51,13.80
2014,08,20,08,52,13.80
2014,08,20,08,53,13.80
2014,08,20,08,54,13.80
2014,08,20,08,55,13.80
2014,08,20,08,56,13.80
2014,08,20,08,57,13.90
2014,08,20,08,58,13.90
2014,08,20,08,59,14.00
2014,08,20,09,00,14.10
2014,08,20,09,01,14.10
2014,08,20,09,02,14.20
2014,08,20,09,03,14.20
2014,08,20,09,04,14.20
2014,08,20,09,05,14.20
2014,08,20,09,06,14.30
2014,08,20,09,07,14.30
2014,08,20,09,08,14.30
2014,08,20,09,09,14.30
2014,08,20,09,10,14.40
2014,08,20,09,11,14.40
2014,08,20,09,12,14.30
2014,08,20,09,13,14.30
2014,08,20,09,14,14.30
2014,08,20,09,15,14.20
2014,08,20,09,16,14.20
2014,08,20,09,17,14.10
2014,08,20,09,18,14.00
2014,08,20,09,19,13.90
2014,08,20,09,20,13.90
2014,08,20,09,21,13.80
2014,08,20,09,22,13.80
2014,08,20,09,23,13.80
2014,08,20,09,24,13.70
2014,08,20,09,25,13.70
2014,08,20,09,26,13.60
2014,08,20,09,27,13.60
2014,08,20,09,28,13.50
2014,08,20,09,29,13.60
2014,08,20,09,30,13.60
2014,08,20,09,31,13.60
2014,08,20,09,32,13.70
2014,08,20,09,33,13.70
2014,08,20,09,34,13.80
2014,08,20,09,35,13.90
2014,08,20,09,36,13.80
2014,08,20,09,37,13.80
2014,08,20,09,38,13.70
2014,08,20,09,39,13.70
2014,08,20,09,40,13.70
2014,08,20,09,41,13.80
2014,08,20,09,42,13.80
2014,08,20,09,43,13.80
2014,08,20,09,44,13.90
2014,08,20,09,45,13.90
2014,08,20,09,46,13.80
2014,08,20,09,47,13.80
2014,08,20,09,48,13.80
2014,08,20,09,49,13.80
2014,08,20,09,50,13.90
2014,08,20,09,51,13.90
2014,08,20,09,52,13.90
2014,08,20,09,53,13.90
2014,08,20,09,54,13.90
2014,08,20,09,55,13.90
2014,08,20,09,56,14.00
2014,08,20,09,57,14.00
2014,08,20,09,58,14.10
2014,08,20,09,59,14.10
2014,08,20,10,00,14.20
2014,08,20,10,01,14.20
2014,08,20,10,02,14.30
2014,08,20,10,03,14.30
2014,08,20,10,04,14.30
2014,08,20,10,05,14.40
2014,08,20,10,06,14.40
2014,08,20,10,07,14.50
2014,08,20,10,08,14.50
2014,08,20,10,09,14.50
2014,08,20,10,10,14.50
2014,08,20,10,11,14.50
2014,08,20,10,12,14.50
2014,08,20,10,13,14.40
2014,08,20,10,14,14.50
2014,08,20,10,15,14.50
2014,08,20,10,16,14.40
2014,08,20,10,17,14.40
2014,08,20,10,18,14.40
2014,08,20,10,19,14.40
2014,08,20,10,20,14.50
2014,08,20,10,21,14.50
2014,08,20,10,22,14.40
2014,08,20,10,23,14.40
2014,08,20,10,24,14.40
2014,08,20,10,25,14.40
2014,08,20,10,26,14.50
2014,08,20,10,27,14.50
2014,08,20,10,28,14.70
2014,08,20,10,29,14.70
2014,08,20,10,30,14.70
2014,08,20,10,31,14.70
2014,08,20,10,32,14.80
2014,08,20,10,33,14.80
2014,08,20,10,34,14.80
2014,08,20,10,35,14.80
2014,08,20,10,36,14.80
2014,08,20,10,37,14.70
2014,08,20,10,38,14.70
2014,08,20,10,39,14.70
2014,08,20,10,40,14.70
2014,08,20,10,41,14.80
2014,08,20,10,42,14.70
2014,08,20,10,43,14.70
2014,08,20,10,44,14.70
2014,08,20,10,45,14.70
2014,08,20,10,46,14.70
2014,08,20,10,47,14.80
2014,08,20,10,48,14.70
2014,08,20,10,49,14.70
2014,08,20,10,50,14.60
2014,08,20,10,51,14.60
2014,08,20,10,52,14.60
2014,08,20,10,53,14.60
2014,08,20,10,54,14.70
2014,08,20,10,55,14.70
2014,08,20,10,56,14.80
2014,08,20,10,57,14.80
2014,08,20,10,58,14.80
2014,08,20,10,59,14.70
2014,08,20,11,00,14.70
2014,08,20,11,01,14.60
2014,08,20,11,02,14.60
2014,08,20,11,03,14.60
2014,08,20,11,04,14.60
2014,08,20,11,05,14.70
2014,08,20,11,06,14.70
2014,08,20,11,07,14.70
2014,08,20,11,08,14.80
2014,08,20,11,09,14.80
2014,08,20,11,10,14.80
2014,08,20,11,11,14.80
2014,08,20,11,12,14.80
2014,08,20,11,13,14.80
2014,08,20,11,14,14.80
2014,08,20,11,15,14.90
2014,08,20,11,16,15.00
2014,08,20,11,17,15.10
2014,08,20,11,18,15.10
2014,08,20,11,19,15.10
2014,08,20,11,20,15.10
2014,08,20,11,21,15.10
2014,08,20,11,22,15.10
2014,08,20,11,23,15.10
2014,08,20,11,24,15.00
2014,08,20,11,25,15.00
2014,08,20,11,26,15.00
2014,08,20,11,27,15.00
2014,08,20,11,28,15.00
2014,08,20,11,29,15.00
2014,08,20,11,30,15.00
2014,08,20,11,31,15.00
2014,08,20,11,32,15.00
2014,08,20,11,33,15.10
2014,08,20,11,34,15.10
2014,08,20,11,35,15.10
2014,08,20,11,36,15.20
2014,08,20,11,37,15.20
2014,08,20,11,38,15.20
2014,08,20,11,39,15.20
2014,08,20,11,40,15.30
2014,08,20,11,41,15.20
2014,08,20,11,42,15.20
2014,08,20,11,43,15.20
2014,08,20,11,44,15.20
2014,08,20,11,45,15.20
2014,08,20,11,46,15.20
2014,08,20,11,47,15.20
2014,08,20,11,48,15.20
2014,08,20,11,49,15.30
2014,08,20,11,50,15.30
2014,08,20,11,51,15.40
2014,08,20,11,52,15.50
2014,08,20,11,53,15.60
2014,08,20,11,54,15.60
2014,08,20,11,55,15.60
2014,08,20,11,56,15.60
2014,08,20,11,57,15.60
2014,08,20,11,58,15.50
2014,08,20,11,59,15.50
2014,08,20,12,00,15.40
2014,08,20,12,01,15.40
2014,08,20,12,02,15.40
2014,08,20,12,03,15.40
2014,08,20,12,04,15.40
2014,08,20,12,05,15.40
2014,08,20,12,06,15.40
2014,08,20,12,07,15.40
2014,08,20,12,08,15.40
2014,08,20,12,09,15.50
2014,08,20,12,10,15.50
2014,08,20,12,11,15.50
2014,08,20,12,12,15.50
2014,08,20,12,13,15.60
2014,08,20,12,14,15.60
2014,08,20,12,15,15.60
2014,08,20,12,16,15.60
2014,08,20,12,17,15.60
2014,08,20,12,18,15.70
2014,08,20,12,19,15.80
2014,08,20,12,20,15.90
2014,08,20,12,21,15.90
2014,08,20,12,22,16.00
2014,08,20,12,23,16.10
2014,08,20,12,24,16.20
2014,08,20,12,25,16.10
2014,08,20,12,26,16.10
2014,08,20,12,27,16.00
2014,08,20,12,28,15.90
2014,08,20,12,29,15.90
2014,08,20,12,30,15.90
2014,08,20,12,31,15.90
2014,08,20,12,32,15.90
2014,08,20,12,33,15.90
2014,08,20,12,34,15.90
2014,08,20,12,35,16.00
2014,08,20,12,36,16.00
2014,08,20,12,37,16.10
2014,08,20,12,38,16.00
2014,08,20,12,39,16.00
2014,08,20,12,40,16.00
2014,08,20,12,41,15.90
2014,08,20,12,42,15.90
2014,08,20,12,43,15.90
2014,08,20,12,44,16.00
2014,08,20,12,45,16.10
2014,08,20,12,46,16.20
2014,08,20,12,47,16.20
2014,08,20,12,48,16.30
2014,08,20,12,49,16.30
2014,08,20,12,50,16.30
2014,08,20,12,51,16.30
2014,08,20,12,52,16.30
2014,08,20,12,53,16.30
2014,08,20,12,54,16.30
2014,08,20,12,55,16.30
2014,08,20,12,56,16.30
2014,08,20,12,57,16.20
2014,08,20,12,58,16.20
2014,08,20,12,59,16.30
2014,08,20,13,00,16.30
2014,08,20,13,01,16.30
2014,08,20,13,02,16.30
2014,08,20,13,03,16.30
2014,08,20,13,04,16.30
2014,08,20,13,05,16.30
2014,08,20,13,06,16.40
2014,08,20,13,07,16.40
2014,08,20,13,08,16.40
2014,08,20,13,09,16.40
2014,08,20,13,10,16.30
2014,08,20,13,11,16.30
2014,08,20,13,12,16.20
2014,08,20,13,13,16.20
2014,08,20,13,14,16.20
2014,08,20,13,15,16.20
2014,08,20,13,16,16.10
2014,08,20,13,17,16.00
2014,08,20,13,18,16.00
2014,08,20,13,19,15.90
2014,08,20,13,20,15.80
2014,08,20,13,21,15.70
2014,08,20,13,22,15.70
2014,08,20,13,23,15.70
2014,08,20,13,24,15.70
2014,08,20,13,25,15.70
2014,08,20,13,26,15.70
2014,08,20,13,27,15.80
2014,08,20,13,28,15.80
2014,08,20,13,29,16.00
2014,08,20,13,30,16.10
2014,08,20,13,31,16.10
2014,08,20,13,32,16.20
2014,08,20,13,33,16.30
2014,08,20,13,34,16.30
2014,08,20,13,35,16.30
2014,08,20,13,36,16.30
2014,08,20,13,37,16.30
2014,08,20,13,38,16.30
2014,08,20,13,39,16.30
2014,08,20,13,40,16.30
2014,08,20,13,41,16.30
2014,08,20,13,42,16.30
2014,08,20,13,43,16.40
2014,08,20,13,44,16.50
2014,08,20,13,45,16.60
2014,08,20,13,46,16.70
2014,08,20,13,47,16.70
2014,08,20,13,48,16.80
2014,08,20,13,49,16.80
2014,08,20,13,50,16.80
2014,08,20,13,51,16.80
2014,08,20,13,52,16.80
2014,08,20,13,53,16.80
2014,08,20,13,54,16.70
2014,08,20,13,55,16.80
2014,08,20,13,56,16.70
2014,08,20,13,57,16.70
2014,08,20,13,58,16.60
2014,08,20,13,59,16.50
2014,08,20,14,00,16.50
2014,08,20,14,01,16.50
2014,08,20,14,02,16.50
2014,08,20,14,03,16.50
2014,08,20,14,04,16.50
2014,08,20,14,05,16.50
2014,08,20,14,06,16.50
2014,08,20,14,07,16.40
2014,08,20,14,08,16.40
2014,08,20,14,09,16.30
2014,08,20,14,10,16.30
2014,08,20,14,11,16.30
2014,08,20,14,12,16.20
2014,08,20,14,13,16.20
2014,08,20,14,14,16.20
2014,08,20,14,15,16.20
2014,08,20,14,16,16.10
2014,08,20,14,17,16.10
2014,08,20,14,18,16.10
2014,08,20,14,19,16.10
2014,08,20,14,20,16.10
2014,08,20,14,21,16.10
2014,08,20,14,22,16.10
2014,08,20,14,23,16.10
2014,08,20,14,24,16.10
2014,08,20,14,25,16.10
2014,08,20,14,26,16.20
2014,08,20,14,27,16.30
2014,08,20,14,28,16.30
2014,08,20,14,29,16.30
2014,08,20,14,30,16.30
2014,08,20,14,31,16.30
2014,08,20,14,32,16.30
2014,08,20,14,33,16.30
2014,08,20,14,34,16.40
2014,08,20,14,35,16.40
2014,08,20,14,36,16.40
2014,08,20,14,37,16.40
2014,08,20,14,38,16.40
2014,08,20,14,39,16.40
2014,08,20,14,40,16.40
2014,08,20,14,41,16.40
2014,08,20,14,42,16.30
2014,08,20,14,43,16.30
2014,08,20,14,44,16.30
2014,08,20,14,45,16.30
2014,08,20,14,46,16.30
2014,08,20,14,47,16.30
2014,08,20,14,48,16.30
2014,08,20,14,49,16.30
2014,08,20,14,50,16.30
2014,08,20,14,51,16.40
2014,08,20,14,52,16.50
2014,08,20,14,53,16.50
2014,08,20,14,54,16.60
2014,08,20,14,55,16.70
2014,08,20,14,56,16.70
2014,08,20,14,57,16.70
2014,08,20,14,58,16.80
2014,08,20,14,59,16.80
2014,08,20,15,00,16.90
2014,08,20,15,01,16.90
2014,08,20,15,02,17.00
2014,08,20,15,03,17.00
2014,08,20,15,04,17.00
2014,08,20,15,05,17.00
2014,08,20,15,06,17.00
2014,08,20,15,07,17.10
2014,08,20,15,08,17.10
2014,08,20,15,09,17.20
2014,08,20,15,10,17.20
2014,08,20,15,11,17.20
2014,08,20,15,12,17.10
2014,08,20,15,13,17.10
2014,08,20,15,14,17.10
2014,08,20,15,15,17.10
2014,08,20,15,16,17.10
2014,08,20,15,17,17.10
2014,08,20,15,18,17.10
2014,08,20,15,19,17.10
2014,08,20,15,20,17.10
2014,08,20,15,21,17.20
2014,08,20,15,22,17.10
2014,08,20,15,23,17.10
2014,08,20,15,24,17.10
2014,08,20,15,25,17.10
2014,08,20,15,26,17.10
2014,08,20,15,27,17.10
2014,08,20,15,28,17.10
2014,08,20,15,29,17.20
2014,08,20,15,30,17.30
2014,08,20,15,31,17.30
2014,08,20,15,32,17.40
2014,08,20,15,33,17.40
2014,08,20,15,34,17.40
2014,08,20,15,35,17.40
2014,08,20,15,36,17.40
2014,08,20,15,37,17.40
2014,08,20,15,38,17.40
2014,08,20,15,39,17.40
2014,08,20,15,40,17.40
2014,08,20,15,41,17.40
2014,08,20,15,42,17.30
2014,08,20,15,43,17.30
2014,08,20,15,44,17.20
2014,08,20,15,45,17.20
2014,08,20,15,46,17.10
2014,08,20,15,47,17.10
2014,08,20,15,48,17.10
2014,08,20,15,49,17.10
2014,08,20,15,50,17.00
2014,08,20,15,51,17.00
2014,08,20,15,52,17.00
2014,08,20,15,53,17.00
2014,08,20,15,54,17.00
2014,08,20,15,55,17.00
2014,08,20,15,56,17.10
2014,08,20,15,57,17.10
2014,08,20,15,58,17.00
2014,08,20,15,59,17.00
2014,08,20,16,00,16.90
2014,08,20,16,01,16.90
2014,08,20,16,02,17.00
2014,08,20,16,03,17.00
2014,08,20,16,04,17.00
2014,08,20,16,05,17.10
2014,08,20,16,06,17.10
2014,08,20,16,07,17.00
2014,08,20,16,08,17.00
2014,08,20,16,09,17.10
2014,08,20,16,10,17.10
2014,08,20,16,11,17.00
2014,08,20,16,12,17.00
2014,08,20,16,13,16.90
2014,08,20,16,14,16.90
2014,08,20,16,15,16.90
2014,08,20,16,16,16.90
2014,08,20,16,17,16.90
2014,08,20,16,18,16.90
2014,08,20,16,19,16.90
2014,08,20,16,20,16.90
2014,08,20,16,21,17.00
2014,08,20,16,22,17.10
2014,08,20,16,23,17.10
2014,08,20,16,24,17.20
2014,08,20,16,25,17.30
2014,08,20,16,26,17.30
2014,08,20,16,27,17.30
2014,08,20,16,28,17.30
2014,08,20,16,29,17.40
2014,08,20,16,30,17.40
2014,08,20,16,31,17.40
2014,08,20,16,32,17.40
2014,08,20,16,33,17.40
2014,08,20,16,34,17.30
2014,08,20,16,35,17.30
2014,08,20,16,36,17.20
2014,08,20,16,37,17.20
2014,08,20,16,38,17.20
2014,08,20,16,39,17.10
2014,08,20,16,40,17.10
2014,08,20,16,41,17.10
2014,08,20,16,42,17.00
2014,08,20,16,43,17.00
2014,08,20,16,44,17.00
2014,08,20,16,45,17.00
2014,08,20,16,46,17.00
2014,08,20,16,47,17.10
2014,08,20,16,48,17.20
2014,08,20,16,49,17.20
2014,08,20,16,50,17.30
2014,08,20,16,51,17.30
2014,08,20,16,52,17.30
2014,08,20,16,53,17.40
2014,08,20,16,54,17.40
2014,08,20,16,55,17.50
2014,08,20,16,56,17.50
2014,08,20,16,57,17.50
2014,08,20,16,58,17.50
2014,08,20,16,59,17.50
2014,08,20,17,00,17.60
2014,08,20,17,01,17.60
2014,08,20,17,02,17.50
2014,08,20,17,03,17.50
2014,08,20,17,04,17.50
2014,08,20,17,05,17.50
2014,08,20,17,06,17.40
2014,08,20,17,07,17.40
2014,08,20,17,08,17.40
2014,08,20,17,09,17.50
2014,08,20,17,10,17.50
2014,08,20,17,11,17.50
2014,08,20,17,12,17.40
2014,08,20,17,13,17.40
2014,08,20,17,14,17.40
2014,08,20,17,15,17.40
2014,08,20,17,16,17.40
2014,08,20,17,17,17.40
2014,08,20,17,18,17.40
2014,08,20,17,19,17.50
2014,08,20,17,20,17.50
2014,08,20,17,21,17.40
2014,08,20,17,22,17.30
2014,08,20,17,23,17.30
2014,08,20,17,24,17.20
2014,08,20,17,25,17.20
2014,08,20,17,26,17.10
2014,08,20,17,27,17.10
2014,08,20,17,28,17.00
2014,08,20,17,29,16.90
2014,08,20,17,30,16.90
2014,08,20,17,31,16.80
2014,08,20,17,32,16.80
2014,08,20,17,33,16.90
2014,08,20,17,34,16.90
2014,08,20,17,35,16.90
2014,08,20,17,36,16.90
2014,08,20,17,37,16.80
2014,08,20,17,38,16.80
2014,08,20,17,39,16.80
2014,08,20,17,40,16.80
2014,08,20,17,41,16.80
2014,08,20,17,42,16.80
2014,08,20,17,43,16.80
2014,08,20,17,44,16.80
2014,08,20,17,45,16.90
2014,08,20,17,46,16.90
2014,08,20,17,47,17.00
2014,08,20,17,48,16.90
2014,08,20,17,49,16.90
2014,08,20,17,50,16.90
2014,08,20,17,51,16.80
2014,08,20,17,52,16.70
2014,08,20,17,53,16.70
2014,08,20,17,54,16.60
2014,08,20,17,55,16.60
2014,08,20,17,56,16.50
2014,08,20,17,57,16.50
2014,08,20,17,58,16.50
2014,08,20,17,59,16.50
2014,08,20,18,00,16.50
2014,08,20,18,01,16.40
2014,08,20,18,02,16.40
2014,08,20,18,03,16.40
2014,08,20,18,04,16.30
2014,08,20,18,05,16.20
2014,08,20,18,06,16.20
2014,08,20,18,07,16.20
2014,08,20,18,08,16.20
2014,08,20,18,09,16.20
2014,08,20,18,10,16.10
2014,08,20,18,11,16.10
2014,08,20,18,12,16.10
2014,08,20,18,13,16.00
2014,08,20,18,14,15.90
2014,08,20,18,15,15.90
2014,08,20,18,16,15.90
2014,08,20,18,17,15.80
2014,08,20,18,18,15.80
2014,08,20,18,19,15.80
2014,08,20,18,20,15.80
2014,08,20,18,21,15.80
2014,08,20,18,22,15.70
2014,08,20,18,23,15.70
2014,08,20,18,24,15.70
2014,08,20,18,25,15.70
2014,08,20,18,26,15.70
2014,08,20,18,27,15.70
2014,08,20,18,28,15.70
2014,08,20,18,29,15.70
2014,08,20,18,30,15.80
2014,08,20,18,31,15.90
2014,08,20,18,32,16.00
2014,08,20,18,33,16.10
2014,08,20,18,34,16.20
2014,08,20,18,35,16.30
2014,08,20,18,36,16.30
2014,08,20,18,37,16.30
2014,08,20,18,38,16.20
2014,08,20,18,39,16.00
2014,08,20,18,40,15.80
2014,08,20,18,41,15.70
2014,08,20,18,42,15.60
2014,08,20,18,43,15.60
2014,08,20,18,44,15.50
2014,08,20,18,45,15.50
2014,08,20,18,46,15.50
2014,08,20,18,47,15.50
2014,08,20,18,48,15.50
2014,08,20,18,49,15.50
2014,08,20,18,50,15.60
2014,08,20,18,51,15.60
2014,08,20,18,52,15.60
2014,08,20,18,53,15.50
2014,08,20,18,54,15.50
2014,08,20,18,55,15.60
2014,08,20,18,56,15.60
2014,08,20,18,57,15.60
2014,08,20,18,58,15.60
2014,08,20,18,59,15.70
2014,08,20,19,00,15.70
2014,08,20,19,01,15.70
2014,08,20,19,02,15.80
2014,08,20,19,03,15.80
2014,08,20,19,04,15.80
2014,08,20,19,05,15.90
2014,08,20,19,06,15.90
2014,08,20,19,07,15.90
2014,08,20,19,08,15.90
2014,08,20,19,09,15.90
2014,08,20,19,10,15.90
2014,08,20,19,11,15.90
2014,08,20,19,12,15.90
2014,08,20,19,13,15.90
2014,08,20,19,14,15.90
2014,08,20,19,15,15.90
2014,08,20,19,16,15.90
